Location: Lamoine Observatory
(44.4551°N, 68.3470°W)
Time: 09:38:14
(UTC-05:00)

Daily predictions for brighter satellites

Satellite Brightness Start Highest point End
(mag) Time Altitude Azimuth Time Altitude Azimuth Time Altitude Azimuth
MOS 1 4.5 16:21:34 10° SE 16:27:00 50° ENE 16:32:26 10° N
CZ-3B DEB 2.0 16:23:37 10° SW 16:27:00 82° SE 16:35:39 10° NE
Meteor 1-12 Rocket 4.4 16:21:50 10° N 16:27:38 64° ENE 16:33:31 10° SSE
Cosmos 2366 rocket 4.0 16:21:29 10° N 16:27:50 70° E 16:34:05 10° SSE
Cosmos 1812 2.8 16:25:26 10° S 16:29:13 60° E 16:33:02 10° NNE
MSX 4.4 16:25:55 10° SE 16:31:05 36° ENE 16:36:16 10° N
CZ-4 R/B 1.5 16:28:46 10° SSE 16:32:50 55° ENE 16:36:51 10° N
SPOT 3 Rocket 3.7 16:27:52 10° SE 16:32:51 51° ENE 16:37:51 10° N
Tiangong 1 1.8 16:31:31 10° WSW 16:34:27 43° SSE 16:37:21 10° E
ISS -1.8 16:32:27 10° WNW 16:35:15 25° N 16:38:04 10° NE
USA 32 4.0 16:30:39 10° S 16:35:51 86° E 16:41:07 10° N
COSMOS 2487 2.5 16:33:40 10° NNW 16:37:14 60° ENE 16:40:47 10° SSE
NOSS 2-1 (D) 4.5 16:35:20 10° S 16:38:35 27° ESE 16:42:01 11° ENE
NOSS 2-1 (C) 4.5 16:36:01 10° S 16:39:16 26° ESE 16:42:40 11° ENE
Cosmos 2218 Rocket 4.1 16:33:16 10° N 16:39:34 86° W 16:45:45 10° S
Cosmos 1844 4.2 16:34:08 10° SW 16:39:36 58° WNW 16:45:07 10° NNE
AQUARIUS 4.3 16:36:37 10° SSE 16:40:59 55° ENE 16:45:24 10° N
Cosmos 2297 4.0 16:39:15 10° S 16:44:37 48° ESE 16:50:00 10° NE
Cosmos 1544 Rocket 4.3 16:41:58 10° NNW 16:46:23 58° W 16:50:45 10° S
Cosmos 2278 Rocket 2.4 16:47:18 10° SSW 16:52:57 74° WNW 16:58:38 10° NNE
COSMO-SKYMED 1 3.7 16:50:50 10° NE 16:54:21 23° E 16:57:50 10° SSE
SJ-12 3.9 16:52:55 10° SSE 16:57:01 89° ENE 17:01:11 10° NNW
NOSS 2-1 (E) 4.0 16:54:16 10° S 16:57:52 37° ESE 17:00:52 16° ENE
OE (NEXTSAT) 4.4 16:54:46 10° WSW 16:58:21 84° NNW 17:00:55 18° ENE
Cosmos 921 Rocket 3.3 16:56:29 10° S 17:00:35 48° ESE 17:04:43 10° NNE
Cosmos 1821 Rocket 4.3 16:55:15 10° N 17:00:57 40° ENE 17:06:38 10° SE
Cosmos 1666 3.8 16:59:16 10° NNE 17:02:27 24° ENE 17:05:37 10° SE
Cosmos 1025 Rocket 4.0 16:58:54 10° SE 17:02:32 26° E 17:05:30 14° NE
Thor Agena Rocket 3.5 16:58:36 10° NNE 17:03:51 78° ESE 17:09:08 10° S
IDEFIX/ARIANE 42P 2.6 16:58:51 10° SSE 17:04:02 89° WSW 17:09:16 10° NNW
Abrixas 3.9 17:02:58 10° WNW 17:05:46 38° SSW 17:08:32 10° SE
Intercosmos 25 3.2 17:03:07 10° N 17:06:11 42° E 17:09:28 10° SSE
Okean 1 3.6 17:02:11 10° SSW 17:06:14 70° W 17:10:19 10° N
Timation 2 Rocket 4.2 17:00:05 10° NNW 17:06:58 89° WSW 17:13:52 10° SSE
Cosmos 1833 Rocket 2.6 17:02:04 10° NNW 17:07:44 74° ENE 17:13:20 10° SSE
Cosmos 1238 Rocket 3.9 17:05:13 10° SW 17:08:00 34° WNW 17:11:05 10° N
Cosmos 1346 Rocket 2.7 17:05:42 10° S 17:09:35 89° SSE 17:13:29 10° N
Cosmos 1536 Rocket 4.2 17:05:38 10° SSW 17:10:03 61° W 17:14:31 10° N
Meteor 2-21 Rocket 4.4 17:07:54 10° N 17:14:07 73° E 17:20:14 10° SSE
Meteor 2-16 Rocket 4.4 17:08:21 10° N 17:14:23 60° ENE 17:20:23 10° SSE
USA 234 3.3 17:08:52 15° NE 17:14:25 74° SE 17:20:56 10° SW
ASTRO F (AKARI) 4.3 17:13:33 18° NNE 17:15:43 56° ESE 17:18:50 10° S
Cosmos 2082 Rocket 2.3 17:11:18 10° NNW 17:17:00 83° WSW 17:22:41 10° SSE
YAOGAN 1 3.0 17:15:22 10° S 17:19:40 65° W 17:23:59 10° NNW
Cosmos 2058 Rocket 4.5 17:17:00 10° NNE 17:25:45 - SE 17:19:09 20° NE
Cosmos 1500 4.3 17:20:15 10° NNW 17:23:58 47° W 17:27:40 10° SSW
Cosmos 1743 2.6 17:22:39 10° N 17:26:33 85° E 17:30:24 10° S
CZ-2C R/B 3.3 17:22:16 10° S 17:27:11 54° W 17:32:16 10° NNW
COSMOS 2441 4.3 17:23:33 10° SSE 17:28:25 88° ENE 17:33:22 10° NNW
Timation 1 Rocket 4.3 17:22:42 10° SSW 17:28:40 86° ESE 17:33:51 14° NNE
MONITOR-E 4.2 17:25:29 10° SSE 17:28:41 86° W 17:31:54 10° NNW
NOSS 3-4 (A) 3.7 17:23:16 10° NW 17:30:15 73° NE 17:37:40 10° SE
NOSS 3-4 (C) 3.7 17:23:22 10° NW 17:30:21 73° NE 17:37:46 10° SE
Nadezhda 3 Rocket 4.0 17:24:19 10° S 17:30:33 89° W 17:36:54 10° N
Meteor 1-28 Rocket 4.0 17:31:26 31° ESE 17:31:26 31° ESE 17:34:33 10° SSE
Meteor 1-19 Rocket 4.2 17:34:36 10° S 17:40:26 87° E 17:46:20 10° N
SL-8 R/B 4.0 17:37:28 10° W 17:42:10 54° N 17:43:47 36° NE
SKYMED 2 3.4 17:39:26 18° NNE 17:42:37 75° ESE 17:46:57 10° S
Cosmos 407 Rocket 3.5 17:37:50 10° NNW 17:42:53 53° ENE 17:47:56 10° SE
Cosmos 1484 Rocket 2.9 17:41:57 10° S 17:45:39 70° WSW 17:49:22 10° NNW
Cosmos 2056 Rocket 3.5 17:41:23 10° S 17:46:41 64° ESE 17:49:18 29° NE
ERBS 4.0 17:45:28 10° NNW 17:47:17 23° N 17:47:17 23° N
Cosmos 1727 Rocket 4.3 17:46:30 10° SSE 17:52:12 40° E 17:53:41 35° ENE
Cosmos 676 Rocket 4.1 17:49:14 10° N 17:54:16 48° ENE 17:55:05 44° E
Meteor 2-9 Rocket 4.0 17:49:33 10° N 17:55:01 86° E 18:00:20 10° S
Meteor 1-15 Rocket 4.2 17:49:27 10° N 17:55:21 71° ENE 18:01:08 10° SSE
Cosmos 2369 Rocket 3.3 17:51:41 10° SSE 17:54:58 25° SE 17:54:58 25° SE
Okean 2 3.3 17:53:03 10° S 17:57:06 62° E 17:57:06 62° E
BREEZE-M R/B 4.0 17:47:39 10° WSW 17:57:20 65° NNW 17:59:08 41° NE
Cosmos 1954 Rocket 4.5 17:53:46 10° N 17:57:49 39° NE 17:57:49 39° NE
Cosmos 1892 Rocket 3.5 17:54:29 10° S 17:58:40 59° ESE 17:58:40 59° ESE
Cosmos 1624 Rocket 3.9 17:54:19 10° SSW 17:59:30 88° ESE 18:02:04 31° NNE
NOAA 12 3.9 17:55:40 10° SSE 18:00:54 74° ENE 18:06:10 10° N
Meteor 1-23 Rocket 4.1 17:57:22 10° S 18:03:04 85° E 18:07:33 17° NNE
Cosmos 1726 Rocket 3.4 17:58:56 10° N 18:03:26 84° E 18:07:53 10° S
Meteor 2-4 Rocket 3.6 17:59:10 10° SSW 18:04:32 81° W 18:09:04 15° N
Cosmos 1371 Rocket 4.3 18:00:13 10° SSW 18:05:33 69° WNW 18:08:53 24° NNE
Tiangong 1 2.7 18:07:28 10° W 18:09:19 32° WSW 18:09:19 32° WSW
Meteor 2-8 Rocket 4.3 18:04:43 10° S 18:10:48 88° E 18:16:59 10° N
Cosmos 1934 Rocket 4.1 18:05:34 10° N 18:11:47 76° W 18:18:04 10° S
ISS -0.9 18:09:35 10° NW 18:10:48 18° NNW 18:10:48 18° NNW
BREEZE-M DEB (TANK) 4.2 18:11:24 10° WNW 18:15:37 40° NNW 18:15:37 40° NNW
Cosmos 1606 Rocket 4.4 18:18:34 10° NNW 18:22:55 50° W 18:27:14 10° SSW
METEOR-M 4.2 18:22:19 10° S 18:27:39 77° WSW 18:33:02 10° NNW
Cosmos 1339 Rocket 4.3 18:21:42 10° S 18:27:18 65° ESE 18:27:18 65° ESE
COSMO-SKYMED 1 4.1 18:28:03 19° NNW 18:30:34 34° WNW 18:34:29 10° SW
Cosmos 1452 Rocket 4.2 18:30:21 10° SSW 18:33:52 43° S 18:33:52 43° S
GEOS 3 Rocket 3.5 18:36:10 82° WSW 18:36:10 82° WSW 18:41:14 10° NW
Cosmos 1153 Rocket 4.4 18:43:50 10° N 18:50:00 79° W 18:56:07 10° S
USA 234 3.9 18:56:13 42° N 18:57:11 45° NNW 19:03:19 10° W
CZ-3B DEB 4.0 18:56:24 10° WNW 19:02:29 46° N 19:04:31 42° NNE
Cosmos 2369 Rocket 4.2 19:34:44 10° SW 19:36:50 22° WSW 19:36:50 22° WSW
FALCON 9 R/B 4.2 19:38:32 10° W 19:49:06 32° SW 19:49:06 32° SW
